This demonstration page uses our WeatherBlox Daily Observations layout. Learn more.

Left ArrowRight Arrow

Hourly Observations for November 28, 2018

Temp ( °F °C ) Dew Point ( °F °C ) Humidity (%) Winds ( mph kmh ) Pressure ( in mb ) Visibility ( mi km ) Precip ( " mm )
12:53 am 00:53 Clear 38 3.3 31 -0.6 76 76 SSE 8 13 29.92 1013 10 16 0.00 0.00
1:53 am 01:53 Clear 35 1.7 30 -1.1 82 82 SSE 8 13 29.91 1013 10 16 0.00 0.00
2:53 am 02:53 Clear 32 0 28 -2.2 85 85 N 6 9 29.90 1013 10 16 0.00 0.00
3:53 am 03:53 Clear 30 -1.1 26 -3.3 85 85 NNW 5 7 29.88 1012 10 16 0.00 0.00
4:53 am 04:53 Clear 28 -2.2 25 -3.9 88 88 N 5 7 29.88 1012 10 16 0.00 0.00
5:53 am 05:53 Clear 27 -2.8 23 -5 85 85 ENE 3 6 29.88 1012 10 16 0.00 0.00
6:53 am 06:53 Clear 25 -3.9 23 -5 92 92 N 6 9 29.91 1013 10 16 0.00 0.00
7:53 am 07:53 Sunny 26 -3.3 22 -5.6 84 84 Calm 29.93 1014 10 16 0.00 0.00
8:53 am 08:53 Sunny 38 3.3 30 -1.1 73 73 Calm 29.93 1013 10 16 0.00 0.00
9:53 am 09:53 Sunny 55 12.8 30 -1.1 38 38 SW 10 17 29.89 1012 10 16 0.00 0.00
10:53 am 10:53 Sunny 62 16.7 30 -1.1 30 30 W 14 22 29.86 1011 10 16 0.00 0.00
11:53 am 11:53 Sunny 67 19.4 29 -1.7 24 24 WSW 17 28 29.84 1011 10 16 0.00 0.00
12:53 pm 12:53 Sunny 72 22.2 28 -2.2 19 19 W 12 19 29.79 1009 10 16 0.00 0.00
1:53 pm 13:53 Sunny 75 23.9 21 -6.1 13 13 W 14 22 29.75 1008 10 16 0.00 0.00
2:53 pm 14:53 Sunny 76 24.4 20 -6.7 12 12 W 18 30 29.73 1007 10 16 0.00 0.00
3:53 pm 15:53 Sunny 76 24.4 18 -7.8 11 11 W 18 30 29.72 1006 10 16 0.00 0.00
4:53 pm 16:53 Sunny 74 23.3 20 -6.7 13 13 WSW 14 22 29.72 1007 10 16 0.00 0.00
5:53 pm 17:53 Clear 66 18.9 23 -5 19 19 SW 8 13 29.74 1007 10 16 0.00 0.00
6:53 pm 18:53 Clear 61 16.1 24 -4.4 24 24 WSW 10 17 29.78 1008 10 16 0.00 0.00
7:53 pm 19:53 Clear 61 16.1 21 -6.1 21 21 W 14 22 29.79 1009 10 16 0.00 0.00
8:53 pm 20:53 Clear 62 16.7 20 -6.7 20 20 WSW 13 20 29.78 1009 10 16 0.00 0.00
9:53 pm 21:53 Clear 55 12.8 22 -5.6 28 28 SW 7 11 29.77 1008 10 16 0.00 0.00
10:53 pm 22:53 Clear 52 11.1 22 -5.6 31 31 WSW 10 17 29.76 1008 10 16 0.00 0.00
11:53 pm 23:53 Clear 50 10 23 -5 35 35 SSW 3 6 29.77 1008 10 16 0.00 0.00

Powered by AerisWeather